100LL.CA
Aviation Fuel Pricing for Canadians
Please upgrade your browser - Tested with IE9, FireFox, Chrome, Safari

Fuel Prices Airport Info Airport List METAR / TAF Kneeboard RSS

Reference Airport: Marathon, ON
N 48 45 26   W 086 20 45

CYSP Marathon, ON
WEATHER
METARCYSP 242100Z 24006KT 150V280 15SM SCT014 BKN016 M03/M06 A3006 RMK SC3SC3 SLP207
TAFTAF CYSP 241939Z 2420/2422 20005KT P6SM FEW012 SCT020 TEMPO 2420/2422 SCT012 BKN020 RMK NXT FCST WILL BE ISSUED AT 251445Z
REF N 48 45 26  W 086 20 45    2.6NE    6W
UTC-5(4)    Elev 1032    A5008 LO4 HI4 CAP
OPR Corp of the Town of Marathon 807-229-1183 after hrs 807-229-6125
Reg
PFA-1,6 C-2,3,4,5
FLT PLN NOTAM FILE CYXZ
FIC London 866-WXBRIEF (Toll free within Canada) or 866-541-4104 (Toll free within Canada & USA)
WXMETAR 13-22Z O/T LWIS. TAF 15-22Z issue times: 15, 20Z (DT 14Z)
SERVICES Mon-Fri ltd hrs. After hrs call out chg may be levied for one or more svcs. 807-229-1183 after hrs 807-229-6125
FUEL100LL, JA-1 (FSII avbl) (self-serve H24) VISA and Mastercard accepted
PRICES100LL public: 2.200; current as of 2013-08-30.
RWY DATARwy 16(159)/34(339) 3933x100 asphalt Thld 34 displ 198.
RCROpr
LIGHTING16-AS(TE ME) AP 4, 34-AS(TE ME) AP 4 ARCAL-122.8 7 keys in 5 secs activates all A/D lgtg exc RIL.
COMM
DRCOWinnipeg rdo (Horn) 123.55 (FISE)
ATFtfc 122.8 5NM 4000 ASL
PALWinnipeg Ctr 134.075
NAV
VORDMEYSP 115.9 Ch 106 N48 44 36 W86 19 39 317 (1256')
Effective 0901Z 01 February 2018 to 0901Z 29 March 2018